• Em Portugal
  • Lista de países
  • Para 7 dias
  • Temperatura da água
  • Mapas de satélite
  • Mapa do tempo
  • Widgets de tempo
  • user-avatar
    Iniciar Sessão

    Previsão horária em Karibib

    Hoje, 22 Setembro, Sábado

    Tempo Temperatura Precipitação Vento Pressão Humidade
    00:00 +25°C° 0 mm 1 m/s 664 mmHg 19%
    01:00 +24°C° 0 mm 1 m/s 664 mmHg 21%
    02:00 +24°C° 0 mm 1 m/s 664 mmHg 21%
    03:00 +23°C° 0 mm 1 m/s 664 mmHg 22%
    04:00 +23°C° 0 mm 1 m/s 664 mmHg 22%
    05:00 +24°C° 0 mm 1 m/s 664 mmHg 21%
    06:00 +25°C° 0 mm 1 m/s 664 mmHg 19%
    07:00 +26°C° 0 mm 1 m/s 665 mmHg 18%
    08:00 +29°C° 0 mm 1 m/s 665 mmHg 15%
    09:00 +31°C° 0 mm 1 m/s 666 mmHg 13%
    10:00 +33°C° 0 mm 1 m/s 667 mmHg 10%
    11:00 +35°C° 0 mm 2 m/s 666 mmHg 10%
    12:00 +36°C° 0 mm 2 m/s 666 mmHg 9%
    13:00 +37°C° 0 mm 3 m/s 666 mmHg 8%
    14:00 +37°C° 0 mm 4 m/s 666 mmHg 8%
    15:00 +37°C° 0 mm 5 m/s 665 mmHg 9%
    16:00 +36°C° 0 mm 6 m/s 665 mmHg 9%
    17:00 +34°C° 0 mm 6 m/s 665 mmHg 11%
    18:00 +32°C° 0 mm 5 m/s 665 mmHg 14%
    19:00 +28°C° 0 mm 4 m/s 665 mmHg 16%
    20:00 +27°C° 0 mm 3 m/s 665 mmHg 18%
    21:00 +26°C° 0 mm 3 m/s 665 mmHg 20%
    22:00 +25°C° 0 mm 2 m/s 665 mmHg 21%
    23:00 +25°C° 0 mm 2 m/s 665 mmHg 21%

    Amanhã, 23 Setembro, Domingo

    Tempo Temperatura Precipitação Vento Pressão Humidade
    00:00 +24°C° 0 mm 1 m/s 665 mmHg 21%
    01:00 +24°C° 0 mm 1 m/s 665 mmHg 21%
    02:00 +24°C° 0 mm 1 m/s 664 mmHg 20%
    03:00 +23°C° 0 mm 1 m/s 664 mmHg 20%
    04:00 +23°C° 0 mm 1 m/s 664 mmHg 20%
    05:00 +24°C° 0 mm 1 m/s 664 mmHg 19%
    06:00 +25°C° 0 mm 1 m/s 665 mmHg 17%
    07:00 +26°C° 0 mm 1 m/s 665 mmHg 15%
    08:00 +29°C° 0 mm 2 m/s 666 mmHg 13%
    09:00 +31°C° 0 mm 2 m/s 666 mmHg 11%
    10:00 +34°C° 0 mm 2 m/s 667 mmHg 9%
    11:00 +35°C° 0 mm 2 m/s 666 mmHg 9%
    12:00 +36°C° 0 mm 2 m/s 666 mmHg 8%
    13:00 +37°C° 0 mm 2 m/s 665 mmHg 8%
    14:00 +37°C° 0 mm 4 m/s 665 mmHg 8%
    15:00 +36°C° 0 mm 5 m/s 665 mmHg 9%
    16:00 +36°C° 0 mm 6 m/s 664 mmHg 9%
    17:00 +34°C° 0 mm 6 m/s 664 mmHg 11%
    18:00 +30°C° 0 mm 5 m/s 664 mmHg 13%
    19:00 +28°C° 0 mm 4 m/s 664 mmHg 16%
    20:00 +27°C° 0 mm 4 m/s 664 mmHg 17%
    21:00 +26°C° 0 mm 3 m/s 665 mmHg 18%
    22:00 +25°C° 0 mm 2 m/s 665 mmHg 20%
    23:00 +24°C° 0 mm 2 m/s 664 mmHg 20%

    Depois de amanhã, 24 Setembro, Segunda-feira

    Tempo Temperatura Precipitação Vento Pressão Humidade
    00:00 +24°C° 0 mm 2 m/s 664 mmHg 20%
    01:00 +24°C° 0 mm 1 m/s 664 mmHg 20%
    02:00 +23°C° 0 mm 1 m/s 663 mmHg 19%
    03:00 +23°C° 0 mm 1 m/s 663 mmHg 19%
    04:00 +23°C° 0 mm 1 m/s 663 mmHg 19%
    05:00 +24°C° 0 mm 1 m/s 663 mmHg 17%
    06:00 +25°C° 0 mm 1 m/s 664 mmHg 16%
    07:00 +26°C° 0 mm 2 m/s 665 mmHg 15%
    08:00 +27°C° 0 mm 2 m/s 665 mmHg 15%
    09:00 +29°C° 0 mm 2 m/s 665 mmHg 14%
    10:00 +30°C° 0 mm 2 m/s 666 mmHg 13%
    11:00 +31°C° 0 mm 2 m/s 665 mmHg 14%
    12:00 +31°C° 0 mm 2 m/s 665 mmHg 15%
    13:00 +33°C° 0 mm 3 m/s 665 mmHg 16%
    14:00 +33°C° 0 mm 3 m/s 664 mmHg 16%
    15:00 +33°C° 0 mm 3 m/s 664 mmHg 16%
    16:00 +33°C° 0 mm 4 m/s 663 mmHg 16%
    17:00 +30°C° 0 mm 4 m/s 664 mmHg 19%
    18:00 +29°C° 0 mm 3 m/s 664 mmHg 21%
    19:00 +27°C° 0 mm 3 m/s 664 mmHg 24%
    20:00 +26°C° 0 mm 3 m/s 664 mmHg 25%
    21:00 +25°C° 0 mm 3 m/s 664 mmHg 26%
    22:00 +24°C° 0 mm 2 m/s 665 mmHg 28%
    23:00 +24°C° 0 mm 2 m/s 664 mmHg 27%

    25 Setembro, Terça-feira

    Tempo Temperatura Precipitação Vento Pressão Humidade
    00:00 +24°C° 0 mm 2 m/s 664 mmHg 27%
    01:00 +23°C° 0 mm 1 m/s 664 mmHg 26%
    02:00 +23°C° 0 mm 1 m/s 664 mmHg 27%
    03:00 +22°C° 0 mm 1 m/s 663 mmHg 27%
    04:00 +22°C° 0 mm 1 m/s 663 mmHg 28%
    05:00 +22°C° 0 mm 1 m/s 664 mmHg 27%
    06:00 +22°C° 0 mm 1 m/s 664 mmHg 26%
    07:00 +23°C° 0 mm 1 m/s 665 mmHg 26%
    08:00 +25°C° 0 mm 2 m/s 665 mmHg 22%
    09:00 +27°C° 0 mm 2 m/s 665 mmHg 18%
    10:00 +29°C° 0 mm 3 m/s 666 mmHg 15%
    11:00 +30°C° 0 mm 4 m/s 665 mmHg 13%
    12:00 +32°C° 0 mm 4 m/s 665 mmHg 12%
    13:00 +33°C° 0 mm 5 m/s 665 mmHg 11%
    14:00 +32°C° 0 mm 6 m/s 665 mmHg 12%
    15:00 +30°C° 0 mm 6 m/s 665 mmHg 13%
    16:00 +30°C° 0 mm 7 m/s 664 mmHg 14%
    17:00 +27°C° 0 mm 6 m/s 665 mmHg 18%
    18:00 +25°C° 0 mm 5 m/s 665 mmHg 22%
    19:00 +22°C° 0 mm 4 m/s 665 mmHg 26%
    20:00 +21°C° 0 mm 3 m/s 665 mmHg 29%
    21:00 +20°C° 0 mm 2 m/s 665 mmHg 31%
    22:00 +20°C° 0 mm 1 m/s 665 mmHg 34%
    23:00 +20°C° 0 mm 1 m/s 665 mmHg 35%

    26 Setembro, Quarta-feira

    Tempo Temperatura Precipitação Vento Pressão Humidade
    00:00 +19°C° 0 mm 1 m/s 664 mmHg 36%
    01:00 +18°C° 0 mm 1 m/s 664 mmHg 37%
    02:00 +18°C° 0 mm 1 m/s 663 mmHg 38%
    03:00 +16°C° 0 mm 1 m/s 663 mmHg 38%
    04:00 +16°C° 0 mm 1 m/s 663 mmHg 39%
    05:00 +18°C° 0 mm 1 m/s 663 mmHg 36%
    06:00 +19°C° 0 mm 1 m/s 664 mmHg 33%
    07:00 +20°C° 0 mm 1 m/s 665 mmHg 29%
    08:00 +23°C° 0 mm 2 m/s 665 mmHg 23%
    09:00 +27°C° 0 mm 2 m/s 666 mmHg 17%
    10:00 +30°C° 0 mm 3 m/s 666 mmHg 11%
    11:00 +31°C° 0 mm 2 m/s 666 mmHg 10%
    12:00 +34°C° 0 mm 2 m/s 666 mmHg 8%
    13:00 +34°C° 0 mm 1 m/s 665 mmHg 7%
    14:00 +35°C° 0 mm 2 m/s 665 mmHg 8%
    15:00 +35°C° 0 mm 3 m/s 665 mmHg 8%
    16:00 +36°C° 0 mm 4 m/s 664 mmHg 9%
    17:00 +33°C° 0 mm 3 m/s 664 mmHg 12%
    18:00 +30°C° 0 mm 3 m/s 664 mmHg 14%
    19:00 +28°C° 0 mm 3 m/s 664 mmHg 17%
    20:00 +26°C° 0 mm 3 m/s 665 mmHg 20%
    21:00 +25°C° 0 mm 2 m/s 665 mmHg 23%
    22:00 +24°C° 0 mm 1 m/s 665 mmHg 26%
    23:00 +23°C° 0 mm 1 m/s 664 mmHg 28%

    27 Setembro, Quinta-feira

    Tempo Temperatura Precipitação Vento Pressão Humidade
    00:00 +22°C° 0 mm 1 m/s 664 mmHg 29%
    01:00 +20°C° 0 mm 0 m/s 663 mmHg 30%
    02:00 +22°C° 0 mm 1 m/s 663 mmHg 30%
    03:00 +21°C° 0 mm 1 m/s 663 mmHg 29%
    04:00 +21°C° 0 mm 1 m/s 663 mmHg 28%
    05:00 +23°C° 0 mm 1 m/s 664 mmHg 24%
    06:00 +24°C° 0 mm 2 m/s 665 mmHg 21%
    07:00 +26°C° 0 mm 2 m/s 666 mmHg 18%
    08:00 +29°C° 0 mm 3 m/s 666 mmHg 17%
    09:00 +31°C° 0 mm 3 m/s 666 mmHg 16%
    10:00 +34°C° 0 mm 4 m/s 667 mmHg 16%
    11:00 +35°C° 0 mm 3 m/s 666 mmHg 15%
    12:00 +36°C° 0 mm 2 m/s 666 mmHg 14%
    13:00 +36°C° 0 mm 1 m/s 665 mmHg 13%
    14:00 +37°C° 0 mm 3 m/s 665 mmHg 13%
    15:00 +36°C° 0 mm 4 m/s 665 mmHg 13%
    16:00 +36°C° 0 mm 6 m/s 665 mmHg 13%
    17:00 +34°C° 0 mm 5 m/s 665 mmHg 16%
    18:00 +30°C° 0 mm 5 m/s 665 mmHg 19%
    19:00 +28°C° 0 mm 4 m/s 665 mmHg 21%
    20:00 +27°C° 0 mm 3 m/s 665 mmHg 24%
    21:00 +25°C° 0 mm 2 m/s 666 mmHg 26%
    22:00 +24°C° 0 mm 1 m/s 666 mmHg 29%
    23:00 +23°C° 0 mm 1 m/s 665 mmHg 30%
    Mostrar mais